Starlink 11367

operational
NORAD ID: 62097 Int'l Des: 2024-220 Owner: SPXS Country: US Constellation: starlink
LEOCIRCULAR

关于 Starlink 11367

正在加载描述...

实时位置

正在加载3D地球...

即将过境

高度历史

Altitude vs Time

uPlot chart will show altitude changes over time

两行轨道根数

1 62097U 24220K 25304.78867731 .00329816 00000-0 24441-2 0 9991
2 62097 43.0007 99.7581 0005451 245.1281 114.9020 15.71112910 54786
Epoch: Oct 31, 2025 • Age: 18 hours

当前状态

高度 364.1 km
速度 7.69 km/s
星下点 -42.99°S, 125.51°E
发射日期 Nov 25, 2024
运行时间 0.9 years
类型 internet

技术详情

分类 Payload
质量 960.00 kg
干质量 910.00 kg
总质量 960.00 kg
长度 0.30 m
直径 4.10 m
跨度 29.00 m
形状 Box + pan
制造商 SPXS
平台类型 Starlink V2MD
阶段状态 In Orbit
所有者/国家 SPXS/US

大型星座

Loading constellations...